When you browse on this site, cookies collect data to enhance your experience and personalize the content and advertising you see.
Visit our Privacy Policy to learn more. By continuing to use the site, you agree to this use of cookies and data.
  • In United Kingdom
  • List of Countries
  • For 7 days
  • Water Temperature
  • Weather Map
  • Weather Widgets
  • user-avatar
    Login

    Hourly Weather Cobán

    Today, 31 May, Sunday

    Time Temperature Precipitation Wind Pressure Humidity
    00:00 +17°C° 1 mm 0 mps 652 mmHg 99%
    01:00 +17°C° 1.7 mm 0 mps 651 mmHg 99%
    02:00 +16°C° 1.7 mm 0 mps 651 mmHg 99%
    03:00 +16°C° 1.7 mm 0 mps 650 mmHg 99%
    04:00 +16°C° 1.6 mm 0 mps 651 mmHg 99%
    05:00 +16°C° 1.6 mm 0 mps 651 mmHg 99%
    06:00 +16°C° 1.6 mm 0 mps 651 mmHg 99%
    07:00 +17°C° 2.6 mm 0 mps 652 mmHg 99%
    08:00 +17°C° 2.6 mm 0 mps 652 mmHg 99%
    09:00 +17°C° 2.6 mm 0 mps 652 mmHg 98%
    10:00 +17°C° 2.1 mm 0 mps 652 mmHg 98%
    11:00 +18°C° 2.1 mm 0 mps 652 mmHg 98%
    12:00 +18°C° 2.1 mm 0 mps 653 mmHg 98%
    13:00 +18°C° 1.6 mm 0 mps 652 mmHg 98%
    14:00 +18°C° 1.6 mm 0 mps 652 mmHg 98%
    15:00 +18°C° 1.6 mm 0 mps 651 mmHg 99%
    16:00 +18°C° 0.1 mm 0 mps 652 mmHg 99%
    17:00 +17°C° 0.1 mm 0 mps 652 mmHg 99%
    18:00 +17°C° 0.1 mm 0 mps 652 mmHg 99%
    19:00 +17°C° 0.1 mm 0 mps 652 mmHg 99%
    20:00 +17°C° 0.1 mm 0 mps 653 mmHg 99%
    21:00 +17°C° 0.1 mm 0 mps 653 mmHg 99%
    22:00 +17°C° 0 mm 0 mps 653 mmHg 98%
    23:00 +16°C° 0 mm 0 mps 653 mmHg 98%

    Tomorrow, 1 June, Monday

    Time Temperature Precipitation Wind Pressure Humidity
    00:00 +16°C° 0 mm 0 mps 653 mmHg 98%
    01:00 +16°C° 0 mm 0 mps 652 mmHg 98%
    02:00 +16°C° 0 mm 0 mps 652 mmHg 98%
    03:00 +15°C° 0 mm 0 mps 651 mmHg 98%
    04:00 +16°C° 0 mm 0 mps 651 mmHg 98%
    05:00 +16°C° 0 mm 0 mps 652 mmHg 98%
    06:00 +16°C° 0 mm 0 mps 652 mmHg 97%
    07:00 +17°C° 0 mm 0 mps 653 mmHg 92%
    08:00 +19°C° 0 mm 0 mps 653 mmHg 87%
    09:00 +21°C° 0 mm 0 mps 654 mmHg 82%
    10:00 +21°C° 0.7 mm 0 mps 654 mmHg 83%
    11:00 +21°C° 0.7 mm 0 mps 654 mmHg 84%
    12:00 +24°C° 0.7 mm 1 mps 654 mmHg 84%
    13:00 +24°C° 1.2 mm 1 mps 653 mmHg 86%
    14:00 +23°C° 1.2 mm 1 mps 653 mmHg 88%
    15:00 +21°C° 1.2 mm 0 mps 652 mmHg 90%
    16:00 +21°C° 0.9 mm 0 mps 652 mmHg 92%
    17:00 +20°C° 0.9 mm 0 mps 652 mmHg 94%
    18:00 +21°C° 0.9 mm 1 mps 652 mmHg 96%
    19:00 +21°C° 0.3 mm 1 mps 652 mmHg 96%
    20:00 +20°C° 0.3 mm 1 mps 653 mmHg 97%
    21:00 +20°C° 0.3 mm 1 mps 653 mmHg 97%
    22:00 +19°C° 0 mm 1 mps 653 mmHg 97%
    23:00 +19°C° 0 mm 1 mps 653 mmHg 96%

    Day after tomorrow, 2 June, Tuesday

    Time Temperature Precipitation Wind Pressure Humidity
    00:00 +19°C° 0 mm 1 mps 653 mmHg 96%
    01:00 +19°C° 0 mm 1 mps 652 mmHg 96%
    02:00 +19°C° 0 mm 1 mps 652 mmHg 96%
    03:00 +18°C° 0 mm 1 mps 651 mmHg 96%
    04:00 +18°C° 0.1 mm 1 mps 651 mmHg 96%
    05:00 +18°C° 0.1 mm 1 mps 652 mmHg 96%
    06:00 +18°C° 0.1 mm 1 mps 652 mmHg 96%
    07:00 +20°C° 0 mm 1 mps 652 mmHg 90%
    08:00 +22°C° 0 mm 1 mps 653 mmHg 84%
    09:00 +23°C° 0 mm 1 mps 654 mmHg 78%
    10:00 +23°C° 0.3 mm 1 mps 654 mmHg 79%
    11:00 +23°C° 0.3 mm 1 mps 653 mmHg 81%
    12:00 +23°C° 0.3 mm 1 mps 653 mmHg 82%
    13:00 +23°C° 0.3 mm 1 mps 653 mmHg 81%
    14:00 +24°C° 0.3 mm 1 mps 652 mmHg 80%
    15:00 +24°C° 0.3 mm 1 mps 652 mmHg 79%
    16:00 +23°C° 0.3 mm 1 mps 652 mmHg 84%
    17:00 +22°C° 0.3 mm 1 mps 652 mmHg 88%
    18:00 +20°C° 0.3 mm 1 mps 651 mmHg 93%
    19:00 +20°C° 0.3 mm 1 mps 652 mmHg 94%
    20:00 +20°C° 0.3 mm 1 mps 652 mmHg 94%
    21:00 +19°C° 0.3 mm 1 mps 653 mmHg 95%
    22:00 +19°C° 0.2 mm 1 mps 653 mmHg 95%
    23:00 +19°C° 0.2 mm 1 mps 652 mmHg 95%

    3 June, Wednesday

    Time Temperature Precipitation Wind Pressure Humidity
    00:00 +19°C° 0.2 mm 1 mps 652 mmHg 96%
    01:00 +19°C° 0 mm 1 mps 652 mmHg 96%
    02:00 +19°C° 0 mm 1 mps 652 mmHg 96%
    03:00 +19°C° 0 mm 1 mps 651 mmHg 96%
    04:00 +19°C° 0 mm 1 mps 651 mmHg 96%
    05:00 +19°C° 0 mm 1 mps 651 mmHg 96%
    06:00 +19°C° 0 mm 1 mps 651 mmHg 96%
    07:00 +20°C° 0.1 mm 1 mps 652 mmHg 93%
    08:00 +21°C° 0.1 mm 1 mps 652 mmHg 90%
    09:00 +21°C° 0.1 mm 1 mps 653 mmHg 87%
    10:00 +22°C° 0.2 mm 1 mps 653 mmHg 85%
    11:00 +23°C° 0.2 mm 1 mps 653 mmHg 82%
    12:00 +23°C° 0.2 mm 1 mps 653 mmHg 80%
    13:00 +24°C° 0.2 mm 1 mps 652 mmHg 79%
    14:00 +24°C° 0.2 mm 1 mps 652 mmHg 77%
    15:00 +25°C° 0.2 mm 1 mps 651 mmHg 76%
    16:00 +24°C° 0.9 mm 1 mps 651 mmHg 81%
    17:00 +21°C° 0.9 mm 0 mps 651 mmHg 87%
    18:00 +20°C° 0.9 mm 0 mps 651 mmHg 92%
    19:00 +19°C° 0.7 mm 0 mps 651 mmHg 94%
    20:00 +20°C° 0.7 mm 1 mps 652 mmHg 95%
    21:00 +20°C° 0.7 mm 1 mps 652 mmHg 97%
    22:00 +19°C° 0.1 mm 1 mps 652 mmHg 97%
    23:00 +19°C° 0.1 mm 1 mps 651 mmHg 97%

    4 June, Thursday

    Time Temperature Precipitation Wind Pressure Humidity
    00:00 +19°C° 0.1 mm 1 mps 651 mmHg 97%
    01:00 +19°C° 0 mm 1 mps 651 mmHg 97%
    02:00 +19°C° 0 mm 1 mps 651 mmHg 97%
    03:00 +19°C° 0 mm 1 mps 650 mmHg 97%
    04:00 +19°C° 0 mm 1 mps 650 mmHg 97%
    05:00 +19°C° 0 mm 1 mps 651 mmHg 97%
    06:00 +19°C° 0 mm 1 mps 651 mmHg 96%
    07:00 +19°C° 0 mm 0 mps 652 mmHg 87%
    08:00 +21°C° 0 mm 0 mps 653 mmHg 78%
    09:00 +23°C° 0 mm 0 mps 653 mmHg 69%
    10:00 +24°C° 0.4 mm 0 mps 653 mmHg 70%
    11:00 +26°C° 0.4 mm 1 mps 653 mmHg 70%
    12:00 +26°C° 0.4 mm 1 mps 653 mmHg 71%
    13:00 +26°C° 2 mm 1 mps 652 mmHg 77%
    14:00 +25°C° 2 mm 1 mps 651 mmHg 83%
    15:00 +22°C° 2 mm 0 mps 651 mmHg 90%
    16:00 +21°C° 2.3 mm 0 mps 651 mmHg 92%
    17:00 +20°C° 2.3 mm 0 mps 651 mmHg 94%
    18:00 +19°C° 2.3 mm 0 mps 651 mmHg 97%
    19:00 +19°C° 3.9 mm 0 mps 651 mmHg 97%
    20:00 +18°C° 3.9 mm 0 mps 651 mmHg 98%
    21:00 +18°C° 3.9 mm 0 mps 652 mmHg 98%
    22:00 +18°C° 3.6 mm 0 mps 652 mmHg 98%
    23:00 +17°C° 3.6 mm 0 mps 652 mmHg 98%

    5 June, Friday

    Time Temperature Precipitation Wind Pressure Humidity
    00:00 +17°C° 3.6 mm 0 mps 652 mmHg 98%
    01:00 +17°C° 0 mm 0 mps 651 mmHg 98%
    02:00 +17°C° 0 mm 0 mps 651 mmHg 98%
    03:00 +17°C° 0 mm 0 mps 651 mmHg 97%
    04:00 +17°C° 0 mm 0 mps 651 mmHg 97%
    05:00 +19°C° 0 mm 1 mps 651 mmHg 97%
    06:00 +19°C° 0 mm 1 mps 651 mmHg 97%
    07:00 +18°C° 0 mm 0 mps 652 mmHg 93%
    08:00 +19°C° 0 mm 0 mps 653 mmHg 89%
    09:00 +20°C° 0 mm 0 mps 653 mmHg 85%
    10:00 +21°C° 0.6 mm 0 mps 653 mmHg 83%
    11:00 +22°C° 0.6 mm 0 mps 653 mmHg 82%
    12:00 +23°C° 0.6 mm 0 mps 653 mmHg 80%
    13:00 +22°C° 1.4 mm 0 mps 652 mmHg 82%
    14:00 +22°C° 1.4 mm 0 mps 652 mmHg 85%
    15:00 +22°C° 1.4 mm 0 mps 651 mmHg 88%
    16:00 +21°C° 1.7 mm 0 mps 651 mmHg 91%
    17:00 +20°C° 1.7 mm 0 mps 652 mmHg 94%
    18:00 +19°C° 1.7 mm 0 mps 652 mmHg 97%
    19:00 +19°C° 4.4 mm 0 mps 652 mmHg 98%
    20:00 +18°C° 4.4 mm 0 mps 652 mmHg 98%
    21:00 +18°C° 4.4 mm 0 mps 652 mmHg 99%
    22:00 +18°C° 5.4 mm 0 mps 652 mmHg 98%
    23:00 +18°C° 5.4 mm 0 mps 653 mmHg 98%
    Show more